Weather History for Waycross, GA

Change the Weather History Date:

Tuesday, November 27, 2012

  Actual Average (KAMG) Record (KAMG)
Temperature  
Mean Temperature 58 °F 57 °F  
Max Temperature 66 °F 68 °F 83 °F (1973)
Min Temperature 50 °F 45 °F 24 °F (1956)
Degree Days  
Heating Degree Days 7 9  
Month to date heating degree days 166  
Since 1 July heating degree days 216  
Cooling Degree Days 0 1  
Month to date cooling degree days 39  
Year to date cooling degree days 2464  
Growing Degree Days 8 (Base 50)    
Moisture  
Dew Point 50 °F    
Average Humidity 81    
Maximum Humidity 100    
Minimum Humidity 60    
Precipitation  
Precipitation 0.00 in 0.09 in 0.93 in (1993)
Month to date precipitation 2.20  
Year to date precipitation 43.08  
Snow  
Snow 0.00 in 0.00 in 0.00 in ()
Month to date snowfall 0.0  
Since 1 July snowfall 0.0  
Since 1 September snowfall 0.0  
Snow Depth -    
Sea Level Pressure  
Sea Level Pressure 30.16 in    
Wind  
Wind Speed 2 mph (NNW)    
Max Wind Speed 15 mph    
Max Gust Speed -    
Visibility 9 miles    
Events      
T = Trace of Precipitation, MM = Missing Value Source: NWS Daily Summary

Daily Weather History Graph

Daily Weather History Graph

Search for Another Location

Airport:

Trip Planner

Search our weather history database for the weather conditions in past years. The results will help you decide how hot, cold, wet, or windy it might be!

Date:

Astronomy

Nov. 27, 2012 Rise Set
Actual Time 7:07 AM EST 5:26 PM EST
Civil Twilight 6:41 AM EST 5:53 PM EST
Nautical Twilight 6:11 AM EST 6:23 PM EST
Astronomical Twilight 5:42 AM EST 6:52 PM EST
Moon 4:56 PM EST (11/27) 6:13 AM EST (11/27)
Length of Visible Light 11h 11m
Length of Day
10h 19m
Waxing Gibbous, 99% of the Moon is Illuminated
Nov 27
Waxing Gibbous
Nov 28
Full
Dec 6
Last Quarter
Dec 13
New
Dec 20
First Quarter

Hourly Weather History & Observations

Time (EST) Temp. Dew Point Humidity Pressure Visibility Wind Dir Wind Speed Gust Speed Precip Events Conditions
12:15 AM 53.6 °F 42.8 °F 67% 30.20 in 10.0 mi Calm Calm - N/A   Clear
12:35 AM 53.6 °F 42.8 °F 67% 30.19 in 10.0 mi Calm Calm - N/A   Clear
12:55 AM 50.0 °F 42.8 °F 76% 30.19 in 10.0 mi Calm Calm - N/A   Clear
1:15 AM 50.0 °F 42.8 °F 76% 30.19 in 10.0 mi Calm Calm - N/A   Clear
1:35 AM 51.8 °F 42.8 °F 71% 30.18 in 10.0 mi Calm Calm - N/A   Clear
1:55 AM 51.8 °F 42.8 °F 71% 30.18 in 10.0 mi Calm Calm - N/A   Clear
2:15 AM 50.0 °F 44.6 °F 82% 30.17 in 10.0 mi Calm Calm - N/A   Unknown
2:35 AM 50.0 °F 44.6 °F 82% 30.17 in 10.0 mi Calm Calm - N/A   Unknown
2:55 AM 50.0 °F 44.6 °F 82% 30.18 in 10.0 mi Calm Calm - N/A   Unknown
5:15 AM 50.0 °F 44.6 °F 82% 30.16 in 10.0 mi Calm Calm - N/A   Clear
5:35 AM 50.0 °F 44.6 °F 82% 30.16 in 10.0 mi Calm Calm - N/A   Clear
5:55 AM 50.0 °F 44.6 °F 82% 30.16 in 10.0 mi Calm Calm - N/A   Scattered Clouds
6:15 AM 50.0 °F 46.4 °F 87% 30.16 in 10.0 mi Calm Calm - N/A   Scattered Clouds
6:35 AM 50.0 °F 44.6 °F 82% 30.16 in 10.0 mi Calm Calm - N/A   Mostly Cloudy
6:55 AM 51.8 °F 46.4 °F 82% 30.16 in 10.0 mi Calm Calm - N/A   Mostly Cloudy
7:15 AM 51.8 °F 46.4 °F 82% 30.16 in 10.0 mi Calm Calm - N/A   Scattered Clouds
7:35 AM 51.8 °F 46.4 °F 82% 30.16 in 10.0 mi Calm Calm - N/A   Mostly Cloudy
7:55 AM 53.6 °F 46.4 °F 77% 30.16 in 10.0 mi Calm Calm - N/A   Mostly Cloudy
8:15 AM 53.6 °F 46.4 °F 77% 30.17 in 10.0 mi Calm Calm - N/A   Mostly Cloudy
8:35 AM 55.4 °F 46.4 °F 72% 30.16 in 10.0 mi Calm Calm - N/A   Mostly Cloudy
8:55 AM 57.2 °F 48.2 °F 72% 30.17 in 10.0 mi Calm Calm - N/A   Scattered Clouds
9:15 AM 59.0 °F 50.0 °F 72% 30.18 in 10.0 mi Calm Calm - N/A   Mostly Cloudy
9:35 AM 60.8 °F 51.8 °F 72% 30.18 in 10.0 mi Calm Calm - N/A   Scattered Clouds
9:55 AM 60.8 °F 51.8 °F 72% 30.19 in 10.0 mi WNW 3.5 mph - N/A   Mostly Cloudy
10:15 AM 59.0 °F 51.8 °F 77% 30.20 in 10.0 mi NW 4.6 mph - N/A   Overcast
10:35 AM 57.2 °F 50.0 °F 77% 30.20 in 10.0 mi NW 5.8 mph - N/A   Overcast
10:55 AM 59.0 °F 51.8 °F 77% 30.20 in 10.0 mi NW 5.8 mph - N/A   Overcast
11:15 AM 60.8 °F 51.8 °F 72% 30.20 in 10.0 mi WNW 5.8 mph - N/A   Overcast
11:35 AM 62.6 °F 51.8 °F 68% 30.20 in 10.0 mi NW 5.8 mph - N/A   Mostly Cloudy
11:55 AM 62.6 °F 51.8 °F 68% 30.19 in 10.0 mi NNW 5.8 mph - N/A   Scattered Clouds
12:15 PM 64.4 °F 51.8 °F 64% 30.18 in 10.0 mi NNW 6.9 mph - N/A   Clear
12:35 PM 64.4 °F 51.8 °F 64% 30.17 in 10.0 mi North 6.9 mph - N/A   Clear
12:55 PM 64.4 °F 51.8 °F 64% 30.14 in 10.0 mi NNE 5.8 mph - N/A   Clear
1:15 PM 66.2 °F 51.8 °F 60% 30.13 in 10.0 mi North 6.9 mph - N/A   Clear
1:55 PM 64.4 °F 51.8 °F 64% 30.11 in 10.0 mi North 4.6 mph - N/A   Clear
2:35 PM 64.4 °F 51.8 °F 64% 30.10 in 10.0 mi North 5.8 mph - N/A   Scattered Clouds
2:55 PM 64.4 °F 51.8 °F 64% 30.10 in 10.0 mi NNW 4.6 mph - N/A   Scattered Clouds
3:15 PM 64.4 °F 51.8 °F 64% 30.10 in 10.0 mi North 3.5 mph - N/A   Mostly Cloudy
3:35 PM 64.4 °F 51.8 °F 64% 30.11 in 10.0 mi NW 6.9 mph - N/A   Mostly Cloudy
3:55 PM 62.6 °F 51.8 °F 68% 30.11 in 10.0 mi NNW 6.9 mph - N/A   Overcast
4:15 PM 62.6 °F 51.8 °F 68% 30.12 in 10.0 mi NNW 6.9 mph - N/A   Overcast
4:35 PM 57.2 °F 53.6 °F 88% 30.15 in 10.0 mi NNW 15.0 mph - N/A   Overcast
5:15 PM 55.4 °F 53.6 °F 94% 30.15 in 10.0 mi NNW 3.5 mph - N/A   Overcast
5:35 PM 53.6 °F 51.8 °F 94% 30.14 in 10.0 mi North 3.5 mph - N/A   Overcast
5:55 PM 53.6 °F 53.6 °F 100% 30.15 in 10.0 mi North 5.8 mph - N/A   Overcast
6:15 PM 53.6 °F 51.8 °F 94% 30.15 in 10.0 mi North 3.5 mph - N/A   Overcast
6:35 PM 53.6 °F 51.8 °F 94% 30.15 in 10.0 mi NNW 3.5 mph - N/A   Overcast
6:55 PM 53.6 °F 51.8 °F 94% 30.16 in 10.0 mi NNW 3.5 mph - N/A   Overcast
7:15 PM 53.6 °F 51.8 °F 94% 30.16 in 7.0 mi NNW 4.6 mph - N/A   Overcast
7:35 PM 53.6 °F 51.8 °F 94% 30.17 in 4.0 mi NW 4.6 mph - N/A   Overcast
7:55 PM 53.6 °F 51.8 °F 94% 30.16 in 5.0 mi Calm Calm - N/A   Overcast
8:15 PM 53.6 °F 51.8 °F 94% 30.15 in 7.0 mi ESE 3.5 mph - N/A   Overcast
8:35 PM 53.6 °F 53.6 °F 100% 30.15 in 5.0 mi SSE 3.5 mph - N/A   Mostly Cloudy
8:55 PM 53.6 °F 53.6 °F 100% 30.14 in 5.0 mi Calm Calm - N/A   Mostly Cloudy
9:15 PM 53.6 °F 53.6 °F 100% 30.15 in 5.0 mi Calm Calm - N/A   Overcast
9:35 PM 53.6 °F 53.6 °F 100% 30.16 in 5.0 mi WNW 5.8 mph - N/A   Overcast
9:55 PM 53.6 °F 53.6 °F 100% 30.18 in 7.0 mi North 11.5 mph - N/A   Overcast
10:15 PM 53.6 °F 53.6 °F 100% 30.18 in 7.0 mi North 5.8 mph - N/A   Overcast
10:35 PM 53.6 °F 53.6 °F 100% 30.18 in 7.0 mi Calm Calm - N/A   Overcast
10:55 PM 53.6 °F 53.6 °F 100% 30.18 in 10.0 mi Calm Calm - N/A   Overcast
11:15 PM 53.6 °F 53.6 °F 100% 30.18 in 7.0 mi Calm Calm - N/A   Overcast
11:35 PM 53.6 °F 53.6 °F 100% 30.19 in 7.0 mi North 4.6 mph - N/A   Mostly Cloudy
11:55 PM 51.8 °F 51.8 °F 100% 30.18 in 2.5 mi Calm Calm - N/A   Clear